#timestamp,LO_Frequency,Hit,StdDev 
1501689615.6,286046998.9,N,2.2
1501689635.4,286047001.2,N,2.1
1501689655.2,286047001.1,N,2.0
1501689675.1,286046998.5,N,2.0
1501689676.0,286046998.5,N,2.0
1501689695.8,286047001.0,N,2.0
1501689715.7,286046998.5,N,2.0
1501689735.5,286046998.3,N,2.0
1501689755.3,286046998.2,N,1.9
1501689775.2,286046999.3,N,1.9
1501689795.0,286046998.8,N,1.9
1501689795.9,286046998.8,N,1.8
1501689815.8,286046998.5,N,1.8
1501689835.6,286047000.9,N,1.8
1501689855.4,286047000.4,N,1.8
1501689875.3,286047002.3,N,1.8
1501689895.1,286047002.7,N,1.8
1501689915.9,286046999.7,N,1.8
1501689935.7,286047002.4,N,1.8
1501689955.5,286046999.9,N,1.8
1501689975.4,286046999.8,N,1.8
1501689995.2,286046999.8,N,1.6
1501690015.1,286047000.9,N,1.3
1501690016.0,286047000.9,N,1.4
1501690035.8,286046999.9,N,1.3
1501690055.6,286047000.3,N,1.3
1501690075.5,286047000.2,N,1.3
1501690095.3,286046999.8,N,1.3
1501690115.1,286047000.4,N,1.2
1501690135.9,286047000.5,N,1.2
1501690155.7,286047000.0,N,1.2
1501690175.6,286047002.8,N,1.3
1501690195.4,286047002.7,N,1.4
1501690215.2,286047001.6,N,1.3
1501690235.1,286047000.0,N,1.3
1501690236.0,286047000.0,N,1.3
1501690255.8,286047000.2,N,1.3
1501690275.7,286047002.8,N,1.3
1501690295.5,286047000.2,N,1.2
1501690315.3,286046998.2,N,1.3
1501690335.2,286046998.6,N,1.3
1501690355.0,286047000.4,N,1.2
1501690355.9,286047000.4,N,1.2
1501690375.8,286047002.8,N,1.2
1501690395.6,286046999.8,N,1.2
1501690415.4,286047000.0,N,1.2
1501690435.3,286047000.5,N,1.1
1501690455.1,286047001.0,N,1.1
1501690475.9,286047001.0,N,1.1
1501690495.7,286047000.6,N,1.1
1501690515.5,286046999.9,N,1.1
1501690535.4,286047002.7,N,1.1
1501690555.2,286047001.5,N,1.1
1501690575.1,286047002.1,N,1.2
1501690576.0,286047002.1,N,1.2
1501690595.8,286047002.0,N,1.2
1501690615.6,286047000.1,N,1.2
1501690635.5,286046999.9,N,1.2
1501690655.3,286046999.7,N,1.2
1501690675.2,286047002.5,N,1.3
1501690695.9,286047001.9,N,1.3
1501690715.7,286047001.9,N,1.2
1501690735.6,286047002.4,N,1.2
1501690755.4,286047002.7,N,1.3
1501690775.3,286047002.7,N,1.3
1501690795.1,286047002.6,N,1.3
1501690796.0,286047002.6,N,1.3
1501690815.8,286047002.7,N,1.3
1501690835.7,286046999.8,N,1.3
1501690855.5,286047002.4,N,1.2
1501690875.4,286046999.7,N,1.1
1501690895.2,286046999.7,N,1.2
1501690915.0,286047000.5,N,1.2
1501690915.9,286047000.5,N,1.1
1501690935.8,286046999.7,N,1.1
1501690955.6,286046999.7,N,1.2
1501690975.5,286046999.8,N,1.2
1501690995.3,286047000.0,N,1.2
1501691015.1,286046999.8,N,1.2
1501691035.9,286046999.8,N,1.2
1501691055.7,286046999.7,N,1.3
1501691075.6,286047002.7,N,1.3
1501691095.4,286046999.9,N,1.3
1501691115.2,286047002.4,N,1.3
1501691135.1,286046999.7,N,1.3
1501691136.0,286046999.7,N,1.3
1501691155.8,286047002.1,N,1.3
1501691175.7,286047002.4,N,1.3
1501691195.5,286047002.4,N,1.3
1501691215.3,286046999.7,N,1.3
1501691235.2,286047002.4,N,1.3
1501691255.0,286047002.3,N,1.3
1501691255.9,286047002.3,N,1.3
1501691275.8,286047002.0,N,1.3
1501691295.6,286047001.8,N,1.3
1501691315.4,286047002.0,N,1.3
1501691335.3,286047001.5,N,1.2
1501691355.1,286047001.9,N,1.2
1501691375.9,286047001.9,N,1.2
1501691395.7,286047002.5,N,1.2
1501691415.5,286047000.1,N,1.2
1501691435.4,286046999.8,N,1.2
1501691455.2,286047000.1,N,1.2
1501691475.1,286047000.3,N,1.2
1501691476.0,286047000.3,N,1.2
1501691495.8,286047000.4,N,1.1
1501691515.6,286046999.8,N,1.1
1501691535.5,286047000.3,N,1.1
1501691555.3,286047000.1,N,1.1
1501691575.1,286047000.8,N,1.1
1501691595.9,286047000.7,N,1.1
1501691615.7,286047002.8,N,1.1
1501691635.6,286047000.3,N,1.1
1501691655.4,286047001.0,N,1.0
1501691675.2,286047000.7,N,1.0
1501691695.1,286047001.1,N,1.0
1501691696.0,286047001.1,N,1.0
1501691715.8,286047001.0,N,0.9
1501691735.7,286046998.1,N,1.1
1501691755.5,286047001.1,N,1.0
1501691775.3,286047000.9,N,1.0
1501691795.2,286046998.1,N,1.1
1501691815.0,286047000.9,N,1.1
1501691815.9,286047000.9,N,1.0
1501691835.8,286046998.1,N,1.1
1501691855.6,286047000.7,N,1.1
1501691875.4,286046998.6,N,1.1
1501691895.3,286046998.4,N,1.2
1501691915.1,286046999.4,N,1.1
1501691935.8,286046998.5,N,1.1
1501691955.7,286046999.0,N,1.1
1501691975.5,286046996.8,N,1.3
1501691995.4,286046999.5,N,1.3
1501692015.2,286046999.6,N,1.3
1501692035.0,286046999.6,N,1.3
1501692035.9,286046999.6,N,1.3
1501692055.8,286046999.6,N,1.3
1501692075.6,286046996.7,N,1.4
1501692095.5,286046996.9,N,1.5
1501692115.3,286046996.8,N,1.6
1501692135.1,286046996.9,N,1.6
1501692155.9,286046996.8,N,1.5
1501692175.7,286046996.5,N,1.6
1501692195.6,286046999.2,N,1.6
1501692215.4,286046997.4,N,1.6
1501692235.2,286046997.9,N,1.5
1501692255.1,286046997.5,N,1.5
1501692256.0,286046997.5,N,1.4
1501692275.8,286046998.0,N,1.4
1501692295.7,286046995.0,P,1.8
1501692315.5,286046996.5,N,1.5
1501692335.3,286046996.6,N,1.3
1501692355.2,286046997.3,N,1.2
1501692375.0,286046999.3,N,1.4
1501692375.9,286046999.3,N,1.5
1501692395.8,286046996.7,N,1.4
1501692415.6,286046996.7,N,1.4
1501692435.4,286046999.5,N,1.4
1501692455.3,286046999.5,N,1.5
1501692475.1,286046997.3,N,1.4
1501692495.8,286046999.6,N,1.5
1501692515.7,286046999.2,N,1.5
1501692535.5,286046996.7,N,1.4
1501692555.4,286046999.6,N,1.5
1501692575.2,286046996.6,N,1.5
1501692595.0,286046997.8,N,1.4
1501692595.9,286046997.8,N,1.4
1501692615.8,286046997.5,N,1.3
1501692635.6,286046997.3,N,1.3
1501692655.5,286046997.8,N,1.3
1501692675.3,286046997.2,N,1.3
1501692695.1,286046998.0,N,1.2
1501692715.9,286046996.2,P,0.8
1501692735.7,286046997.3,P,0.7
1501692755.6,286046997.4,P,0.6
1501692775.4,286046996.9,P,0.1
1501692795.2,286047000.8,P,1.8
1501692815.1,286047000.9,N,1.9
1501692846.0,286046998.1,E,nan
1501692855.0,286047000.2,N,0.0
1501692855.9,286047000.2,P,0.0
1501692875.8,286047002.2,P,0.9
1501692895.6,286047002.3,N,1.0
1501692915.5,286047002.5,N,1.0
1501692935.3,286047002.5,N,1.0
1501692955.1,286047004.0,P,1.2
1501692975.9,286047002.2,N,1.0
1501692995.7,286047002.3,N,0.9
1501693015.6,286047002.4,N,0.8
1501693035.4,286047002.5,P,0.0
1501693055.2,286046999.1,P,1.6
1501693075.1,286046999.1,N,1.7
1501693076.0,286046999.1,N,1.7
1501693095.8,286046999.3,N,1.6
1501693115.7,286046999.2,N,1.5
1501693135.5,286046999.6,N,1.4
1501693155.3,286046996.5,N,1.7
1501693175.2,286046999.5,N,1.7
1501693195.0,286046997.4,N,1.7
1501693195.9,286046997.4,N,1.7
